Location: Pedholt
(56.0260°N, 10.2097°E)
Time: 09:33:40
(UTC+00:00)

Transit 4A - Visible Passes

Search period start: 31 July 2021 00:00
Search period end: 10 August 2021 00:00
Orbit: 872 x 972 km, 66.8° (Epoch: 30 July)

Date Brightness Start Highest point End Pass type
(mag) Time Alt. Az. Time Alt. Az. Time Alt. Az.
31 Jul 7.8 00:13:07 21° SSW 00:17:07 72° SE 00:22:57 10° NE visible
31 Jul 8.8 01:58:19 10° W 02:03:52 43° NNW 02:09:26 10° NE visible
31 Jul 9.0 22:38:26 20° SE 22:40:40 25° ESE 22:45:21 10° ENE visible
01 Aug 7.8 00:21:55 18° SW 00:26:24 88° NW 00:32:17 10° NE visible
01 Aug 9.0 02:08:01 10° W 02:13:25 37° NNW 02:18:50 10° NE visible
01 Aug 8.6 22:47:11 24° SSE 22:49:44 34° ESE 22:54:56 10° NE visible
02 Aug 8.0 00:30:40 14° SW 00:35:45 71° NW 00:41:37 10° NE visible
02 Aug 9.3 02:17:45 10° W 02:23:01 33° NNW 02:28:16 10° NE visible
02 Aug 9.8 21:13:44 10° ESE 21:13:55 10° E 21:14:06 10° E visible
02 Aug 8.2 22:55:53 25° S 22:58:51 46° ESE 23:04:23 10° NE visible
03 Aug 8.3 00:39:23 10° WSW 00:45:10 57° NW 00:50:57 10° NE visible
03 Aug 9.4 02:27:30 10° WNW 02:32:38 31° N 02:37:46 10° NE visible
03 Aug 9.4 21:21:03 13° SE 21:22:49 15° ESE 21:25:55 10° ENE visible
03 Aug 7.8 23:04:31 24° SSW 23:08:03 61° SE 23:13:48 10° NE visible
04 Aug 8.6 00:48:59 10° WSW 00:54:38 47° NNW 01:00:17 10° NE visible
04 Aug 9.6 02:37:13 10° WNW 02:42:16 29° N 02:47:21 10° NE visible
04 Aug 9.1 21:29:37 17° SE 21:31:45 21° ESE 21:35:57 10° ENE visible
04 Aug 7.7 23:13:05 20° SW 23:17:18 79° SE 23:23:09 10° NE visible
05 Aug 9.0 00:58:39 10° W 01:04:09 40° NNW 01:09:40 10° NE visible
05 Aug 8.7 21:38:05 20° SSE 21:40:47 28° ESE 21:45:39 10° ENE visible
05 Aug 7.8 23:21:33 14° SW 23:26:37 82° NW 23:32:29 10° NE visible
06 Aug 9.2 01:08:22 10° W 01:13:43 35° NNW 01:19:04 10° NE visible
06 Aug 8.3 21:46:27 20° S 21:49:51 38° ESE 21:55:11 10° NE visible
06 Aug 8.1 23:30:09 10° WSW 23:35:58 66° NW 23:41:49 10° NE visible
07 Aug 9.4 01:18:06 10° WNW 01:23:18 32° NNW 01:28:32 10° NE visible
07 Aug 9.6 20:12:03 10° ESE 20:13:57 12° E 20:15:52 10° E visible
07 Aug 8.0 21:54:39 17° SSW 21:59:00 51° ESE 22:04:38 10° NE visible
07 Aug 8.5 23:39:41 10° WSW 23:45:25 53° NW 23:51:09 10° NE visible
08 Aug 9.6 01:27:50 10° WNW 01:32:56 30° N 01:38:04 10° NE visible
08 Aug 9.2 20:19:17 10° SE 20:22:52 17° ESE 20:26:26 10° ENE visible
08 Aug 7.7 22:02:36 11° SSW 22:08:13 67° SE 22:14:01 10° NE visible
08 Aug 8.8 23:49:18 10° WSW 23:54:54 45° NNW 00:00:30 10° NE visible
09 Aug 9.7 01:37:33 10° WNW 01:42:35 29° N 01:47:40 10° ENE visible
09 Aug 8.9 20:27:22 10° SSE 20:31:50 23° ESE 20:36:18 10° ENE visible
09 Aug 7.7 22:11:37 10° SW 22:17:29 86° SE 22:23:21 10° NE visible
